Showing default

IRIDE-MS2-HEO-6, 64576

Orbit data source: Space-Track

IRIDE-MS2-HEO-6, 64576 is an Italian payload satellite in SSO that was launched on Mon, 23 Jun 2025 UTC via an FALCON 9 launch vehicle from the Air Force Western Test Range (AFWTR). Payload-class satellites include a variety of spacecraft equipped with specific instruments for various scientific and technological missions. These include communications satellites like Starlink; space stations such as the ISS; scientific satellites like the Hubble; Earth observation satellites from companies like Planet Labs, Umbra, and HawkEye 360; GPS; miniature CubeSats for education and research; and military/defense satellites.

Loading next visibility...
Identifier
64576, 2025-135BA
Orbit
SSO
Country
Flag of ITIT
Related business
Manufacturer
ArgoTec
Mission
Operational Civil Imaging
Bus & Motor
HAWK, Unknown motor
Mass
65 kg wet, 65 kg dry
Launch date (UTC)
2025-06-23 (1 year ago)
Launch vehicle
FALCON 9
Launch site
Air Force Western Test Range (AFWTR)
Object type
Payload
Rocket body
Debris
Shape & HBR
Box + 2 Pan, 3.0 m
Radar Cross Section
0.683 m², Medium (>0.1 m² and < 1m²)

Expand to show TLE details & history
Last TLE update: 9 hours ago

TLE from 9 hours ago
0 IRIDE-MS2-HEO-6
1 64576U 25135BA  26235.90945986  .00001301  00000-0  13407-3 0  9995
2 64576  97.7777 349.2010 0002625 107.7315 252.4190 14.91945677 63984
Epoch: 2026-08-23T21:49Z
TLE epoch observation values (Epoch: 2026-08-23T21:49:37.331Z)
Latitude
-0.0001°
Longitude
49.59672°
Altitude
595.464 km
Speed
7.562 km/s
True Right ascension
23h 16m 48s
True Declination
0° 00' 00"
Sunlit
Object was in full shadow at epoch
Visualization orbit readout
Latitude
Unknown
Longitude
Unknown
Altitude
Unknown
Speed
Unknown
Apparent Right ascension
Unknown
Apparent Declination
Unknown
Sunlit
N/A
Visualization observer readout
Local Sidereal Time
21:42:09
Azimuth
Unknown
Elevation
Unknown
Doppler factor
Unknown
Orbital elements
Apogee altitude
590.718 km
Perigee altitude
587.06 km
Semi-major axis
6,967.026 km
Eccentricity
0.00026
Inclination
97.7777°
RAAN
349.201°
Arg. of periapsis
107.7315°
True anomaly
252.39033°
Mean anomaly
252.419°
Eccentric anomaly
252.40466°
Mean motion
3.73226 °/min
Orbital period
96.46 mins
BSTAR
0.00013407
Loading maneuver chart data...
Computing Atmospheric mass density...
Loading historical data...
Loading historical data...
Loading historical data...
Loading historical data...
Loading historical data...
Loading historical data...
Loading historical data...

Documentation

Showing up to 5 results
|